User: anonymous   Login
Location: Libas
(9.8833°N, 125.9833°E)
Time: 00:16:48
(UTC+00:00)
Language:

ADEOS Rocket - Orbit

View from above orbital plane
View from above orbital plane
View from above satellite
View from above satellite

Ground track
Ground track

The orbit data is extracted from the following two-line orbital elements,

1 24279U 96046C   21021.67630068 -.00000012  00000-0  28989-4 0  9995
2 24279  98.7068 181.1949 0300221 176.0659 195.4095 13.47173097201232
Epoch (UTC): 21 January 2021 16:13:52
Eccentricity: 0.0300221
inclination: 98.7068°
perigee height: 858 km
apogee height: 1306 km
right ascension of ascending node: 181.1949°
argument of perigee: 176.0659°
revolutions per day: 13.47173097
mean anomaly at epoch: 195.4095°
orbit number at epoch: 20123

The dashed part of the orbit path shows where the satellite is in the earth's shadow,  

DLR